FW2671 Weather Reports


time (UTC)temp
C
wind
direction
speed
KPH
gust
KPH
rain 1hr
cm
rain 24hr
cm
rain mn
cm
humidity
%
barometer
mb
20260903042850 25 275 0.0 0.0 0.00 0.00 0.00 85 1011.5
20260903035848 26 275 0.0 0.0 0.00 0.00 0.00 82 1011.5
20260903034847 26 275 0.0 0.0 0.00 0.00 0.00 81 1011.6
20260903033846 26 275 0.0 0.0 0.00 0.00 0.00 81 1011.5
20260903032845 26 275 0.0 0.0 0.00 0.00 0.00 81 1011.7
20260903031844 26 275 0.0 0.0 0.00 0.00 0.00 80 1011.7
20260903030843 26 275 0.0 0.0 0.00 0.00 0.00 80 1011.9
20260903025843 26 275 0.0 0.0 0.00 0.00 0.00 79 1011.8
20260903024842 27 275 0.0 0.0 0.00 0.00 0.00 78 1011.9
20260903023841 27 275 0.0 0.0 0.00 0.00 0.00 78 1011.8
20260903021839 27 275 0.0 0.0 0.00 0.00 0.00 76 1011.9
20260903020908 28 275 0.0 0.0 0.00 0.00 0.00 75 1011.9
20260903015907 28 275 0.0 0.0 0.00 0.00 0.00 74 1011.8
20260903014907 28 275 0.0 0.0 0.00 0.00 0.00 73 1011.8
20260903013907 28 275 0.0 0.0 0.00 0.00 0.00 72 1011.7
20260903012904 28 275 0.0 0.0 0.00 0.00 0.00 69 1011.7
20260903011903 28 275 0.0 0.0 0.00 0.00 0.00 67 1011.7
20260903010904 29 275 0.0 0.0 0.00 0.00 0.00 66 1011.4
20260903004901 30 275 0.0 0.0 0.00 0.00 0.00 64 1011.1
20260903002859 30 275 0.0 0.0 0.00 0.00 0.00 60 1010.8
20260903001859 31 275 0.0 0.0 0.00 0.00 0.00 58 1011.1
20260903000858 31 275 0.0 0.0 0.00 0.00 0.00 57 1011.1
20260902235856 31 275 0.0 0.0 0.00 0.00 0.00 56 1011.0
20260902234855 32 275 0.0 0.0 0.00 0.00 0.00 54 1011.1
20260902233855 32 275 0.0 0.0 0.00 0.00 0.00 54 1011.1
20260902232854 32 275 0.0 0.0 0.00 0.00 0.00 53 1011.1
20260902231853 33 275 0.0 0.0 0.00 0.00 0.00 51 1011.1
20260902230852 33 275 0.0 0.0 0.00 0.00 0.00 51 1011.2
20260902225852 33 275 0.0 1.6 0.00 0.00 0.00 50 1011.1
20260902224850 33 275 0.0 1.6 0.00 0.00 0.00 50 1011.2
20260902223849 33 275 0.0 6.4 0.00 0.00 0.00 48 1011.2
20260902222848 34 275 0.0 3.2 0.00 0.00 0.00 48 1011.3
20260902221848 34 275 0.0 3.2 0.00 0.00 0.00 47 1011.4
20260902220847 34 273 0.0 8.0 0.00 0.00 0.00 48 1011.4
20260902215846 35 287 0.0 1.6 0.00 0.00 0.00 48 1011.5
20260902214845 35 287 0.0 3.2 0.00 0.00 0.00 48 1011.5
20260902212843 35 288 0.0 6.4 0.00 0.00 0.00 47 1011.6
20260902211842 35 293 0.0 6.4 0.00 0.00 0.00 47 1011.7
20260902210841 36 179 0.0 8.0 0.00 0.00 0.00 47 1011.7
20260902205840 36 290 3.2 4.8 0.00 0.00 0.00 46 1011.8
20260902204839 36 229 0.0 3.2 0.00 0.00 0.00 46 1011.7
20260902203838 36 269 0.0 3.2 0.00 0.00 0.00 44 1011.8
20260902201907 36 284 0.0 1.6 0.00 0.00 0.00 45 1012.1
20260902200906 36 284 0.0 3.2 0.00 0.00 0.00 45 1012.2
20260902195905 36 316 0.0 3.2 0.00 0.00 0.00 44 1012.3
20260902194904 36 238 0.0 3.2 0.00 0.00 0.00 45 1012.4
20260902192902 36 224 0.0 6.4 0.00 0.00 0.00 48 1012.6
20260902191902 36 105 0.0 3.2 0.00 0.00 0.00 47 1012.6
20260902190901 36 292 0.0 3.2 0.00 0.00 0.00 48 1012.7
20260902184859 36 221 0.0 3.2 0.00 0.00 0.00 48 1012.9
20260902183858 35 163 0.0 3.2 0.00 0.00 0.00 51 1013.0
20260902182857 35 169 0.0 8.0 0.00 0.00 0.00 50 1012.9
20260902181856 35 236 0.0 4.8 0.00 0.00 0.00 51 1013.0
20260902180855 35 196 1.6 4.8 0.00 0.00 0.00 51 1013.0
20260902175854 35 194 0.0 4.8 0.00 0.00 0.00 51 1013.2
20260902173852 35 343 0.0 6.4 0.00 0.00 0.00 50 1013.4
20260902172851 35 306 0.0 11.3 0.00 0.00 0.00 50 1013.6
20260902170850 35 240 0.0 3.2 0.00 0.00 0.00 50 1013.9
20260902164848 35 238 0.0 4.8 0.00 0.00 0.00 54 1014.1
20260902163847 35 233 0.0 3.2 0.00 0.00 0.00 54 1014.1
20260902161845 34 146 0.0 1.6 0.00 0.00 0.00 57 1014.2
20260902160844 34 144 0.0 3.2 0.00 0.00 0.00 55 1014.4
20260902155843 34 138 0.0 1.6 0.00 0.00 0.00 54 1014.4
20260902154843 34 135 0.0 1.6 0.00 0.00 0.00 56 1014.5
20260902153842 34 134 0.0 0.0 0.00 0.00 0.00 56 1014.4
20260902152841 33 134 0.0 0.0 0.00 0.00 0.00 57 1014.4
20260902150909 32 134 0.0 1.6 0.00 0.00 0.00 59 1014.3
20260902145838 32 134 0.0 1.6 0.00 0.00 0.00 61 1014.2
20260902144907 32 134 0.0 1.6 0.00 0.00 0.00 63 1014.2
20260902143906 31 134 0.0 1.6 0.00 0.00 0.00 66 1014.1
20260902141905 30 134 0.0 0.0 0.00 0.00 0.00 69 1014.2
20260902140904 29 134 0.0 0.0 0.00 0.00 0.00 72 1014.3
20260902135903 28 134 0.0 0.0 0.00 0.00 0.00 74 1014.1
20260902134902 28 134 0.0 0.0 0.00 0.00 0.00 75 1014.2
20260902133901 27 134 0.0 1.6 0.00 0.00 0.00 78 1014.0
20260902132900 26 134 0.0 1.6 0.00 0.00 0.00 83 1014.0
20260902130858 24 134 0.0 0.0 0.00 0.00 0.00 90 1013.9
20260902125857 23 134 0.0 1.6 0.00 0.00 0.00 91 1013.9
20260902123856 22 134 0.0 0.0 0.00 0.00 0.00 91 1013.7
20260902122855 22 134 0.0 0.0 0.00 0.00 0.00 91 1013.7
20260902121854 22 134 0.0 0.0 0.00 0.00 0.00 91 1013.6
20260902120853 22 134 0.0 0.0 0.00 0.00 0.00 91 1013.6
20260902115852 22 134 0.0 0.0 0.00 0.00 0.00 91 1013.4
20260902112849 21 134 0.0 0.0 0.00 0.00 0.00 91 1013.3
20260902111848 21 134 0.0 0.0 0.00 0.00 0.00 91 1013.2
20260902110848 21 134 0.0 0.0 0.00 0.00 0.00 91 1013.1
20260902105847 21 134 0.0 0.0 0.00 0.00 0.00 91 1013.2
20260902104846 21 134 0.0 0.0 0.00 0.00 0.00 91 1013.2
20260902103845 21 134 0.0 0.0 0.00 0.00 0.00 91 1013.1
20260902102844 21 134 0.0 0.0 0.00 0.00 0.00 91 1013.0
20260902101843 22 134 0.0 0.0 0.00 0.00 0.00 91 1013.0
20260902100842 22 134 0.0 0.0 0.00 0.00 0.00 91 1012.9
20260902095841 22 134 0.0 0.0 0.00 0.00 0.00 91 1013.0
20260902094841 22 134 0.0 0.0 0.00 0.00 0.00 91 1013.0
20260902093839 22 134 0.0 0.0 0.00 0.00 0.00 91 1012.9
20260902092839 22 134 0.0 0.0 0.00 0.00 0.00 91 1012.8
20260902091908 22 134 0.0 0.0 0.00 0.00 0.00 91 1012.9
20260902090907 22 134 0.0 0.0 0.00 0.00 0.00 91 1012.7
20260902085836 22 134 0.0 0.0 0.00 0.00 0.00 91 1012.9
20260902084905 22 134 0.0 0.0 0.00 0.00 0.00 91 1012.9
20260902083904 22 134 0.0 0.0 0.00 0.00 0.00 91 1012.8
20260902082903 22 134 0.0 0.0 0.00 0.00 0.00 90 1012.8
20260902081902 22 134 0.0 0.0 0.00 0.00 0.00 90 1012.7
20260902075901 23 134 0.0 0.0 0.00 0.00 0.00 91 1012.8
20260902074900 23 134 0.0 0.0 0.00 0.00 0.00 91 1012.7
20260902073859 23 134 0.0 0.0 0.00 0.00 0.00 90 1012.7
20260902072858 23 134 0.0 0.0 0.00 0.00 0.00 90 1012.7
20260902071857 23 134 0.0 0.0 0.00 0.00 0.00 90 1012.6
20260902070856 23 134 0.0 0.0 0.00 0.00 0.00 90 1012.7
20260902064854 23 134 0.0 0.0 0.00 0.00 0.00 90 1012.6
20260902063853 23 134 0.0 0.0 0.00 0.00 0.00 90 1012.6
20260902060850 23 134 0.0 0.0 0.00 0.00 0.00 89 1013.0
20260902055850 23 134 0.0 0.0 0.00 0.00 0.00 89 1012.7
20260902054849 23 134 0.0 0.0 0.00 0.00 0.00 89 1012.8
20260902052847 23 134 0.0 0.0 0.00 0.00 0.00 89 1012.7
20260902051846 24 134 0.0 0.0 0.00 0.00 0.00 88 1012.7
20260902045845 24 134 0.0 0.0 0.00 0.00 0.00 87 1012.5
20260902044844 24 134 0.0 0.0 0.00 0.00 0.00 88 1012.6
20260902043843 25 134 0.0 0.0 0.00 0.00 0.00 87 1012.7